Overview Statistics Trail Chart Weather Telemetry Raw packets
 

This is the latest recevied weather packets stored in our database for station/object K0QED. If no packets are shown the sender has not sent any weather packets the latest 10 day(s).

<< 102 103 104 105 106 107 108 >>
Time Temp. Humidity Pressure Rain* Wind** Luminosity Snow
1787855565 25.56° C 46% 1030.9 hPa 0 mm - 183 W/m² -
1787855260 26.67° C 44% 1031.1 hPa 0 mm - 501 W/m² -
1787854956 26.11° C 45% 1031 hPa 0 mm - 781 W/m² -
1787854651 26.11° C 46% 1031.1 hPa 0 mm - 186 W/m² -
1787854345 26.67° C 45% 1031.2 hPa 0 mm - 728 W/m² -
1787854040 26.11° C 46% 1031.1 hPa 0 mm - 668 W/m² -
1787853740 25.56° C 46% 1031.5 hPa 0 mm - 660 W/m² -
1787853439 25.56° C 45% 1031.5 hPa 0 mm - 654 W/m² -
1787853138 25.56° C 46% 1031.5 hPa 0 mm - 642 W/m² -
1787852833 26.11° C 47% 1031.4 hPa 0 mm - 631 W/m² -
1787852532 25.56° C 45% 1031.6 hPa 0 mm - 649 W/m² -
1787852227 25° C 47% 1031.5 hPa 0 mm - 675 W/m² -
1787851921 25.56° C 46% 1031.5 hPa 0 mm - 688 W/m² -
1787851621 25° C 47% 1031.5 hPa 0 mm - 676 W/m² -
1787851315 25° C 50% 1031.7 hPa 0 mm - 668 W/m² -
1787851011 24.44° C 51% 1031.6 hPa 0 mm - 668 W/m² -
1787850707 25.56° C 49% 1031.6 hPa 0 mm - 671 W/m² -
1787850402 25° C 50% 1031.6 hPa 0 mm - 704 W/m² -
1787850098 23.89° C 51% 1031.7 hPa 0 mm - 707 W/m² -
1787849797 23.33° C 52% 1031.9 hPa 0 mm - 699 W/m² -
1787849492 23.89° C 51% 1031.7 hPa 0 mm - 737 W/m² -
1787849191 23.33° C 48% 1031.9 hPa 0 mm - 758 W/m² -
1787848890 22.78° C 52% 1031.4 hPa 0 mm - 758 W/m² -
1787848585 22.22° C 54% 1031.9 hPa 0 mm - 732 W/m² -
1787848284 21.67° C 57% 1032 hPa 0 mm - 682 W/m² -

* Rain latest hour (hover to see other rain measurements)
** Current wind speed in m/s (hover to see current wind gust speed)